Погода в Малом Галово

Россия / Республика Коми     65°17′08″N   52°56′09″E
темп.,
°C
ветер,
м/с
пор.,
м/с
влажн.,
%
обл.,
%
осадки,
мм/ч
давл.,
гПа
погр.,
м
21 января, пт
пт2100:00−7ююз51294100 0.8 997562
03:00−7ююз4129173 1.3 999461
06:00−7ю4119298 0.0 1000371
09:00−7ю31093100 0.1 1002339
12:00−5ю41295100 0.8 1003520
15:00−6ююз41190100 0.8 1005473
18:00−7ююз41091100 0.0 1008382
21:00−8ююз31092100 0.0 1010337
22 января, сб
сб2200:00−9ююз3993100 0.0 1013274
03:00−11ю3895100 0.0 1015187
06:00−12ююз279684 0.0 1017170
09:00−15ююз269766 0.0 1019113
12:00−14ююз269549 0.0 1022144
15:00−17ю239721 0.0 102443
18:00−20ююз23986 0.0 102630
21:00−21ююз11999 0.0 102719
23 января, вс
вс2300:00−21ююз111005 0.0 102816
03:00−21ю1110022 0.0 102915
06:00−21ю1210040 0.0 103020
09:00−19ю239924 0.0 103055
12:00−15ю279619 0.0 1031162
15:00−17ю239951 0.0 103240
18:00−16ю279629 0.0 1032124
21:00−16ю2797100 0.0 1032116
24 января, пн
пн2400:00−16ю3796100 0.0 1032146
03:00−14ю31095100 0.0 1031225
06:00−15ю389640 0.0 1030188
09:00−13ююз3129353 0.0 1029288
12:00−12ююз4139112 0.0 1028387
15:00−12ююз413895 0.0 1026365
18:00−12ююз514897 0.0 1025392
21:00−12ююз5148733 0.0 1023413
25 января, вт
вт2500:00−12ююз4138763 0.0 1022410
03:00−10ююз41385100 0.0 1020460
06:00−9ююз41483100 0.0 1019501
09:00−9ююз41383100 0.0 1019540
12:00−8ююз51483100 0.0 1019576
15:00−10ююз41384100 0.0 1019488
18:00−11ююз41387100 0.0 1020447
21:00−12ююз4129074 0.0 1020422